DW8935 Weather Reports


time (UTC)temp
F
wind
direction
speed
knots
gust
knots
rain 1hr
in
rain 24hr
in
rain mn
in
humidity
%
barometer
mb
20260506084544 56 263 2.6 7.0 0.00 0.00 0.00 87 1014.5
20260506083041 56 282 1.7 8.7 0.00 0.00 0.00 85 1014.7
20260506081539 57 265 3.5 14.8 0.00 0.00 0.00 81 1015.0
20260506073039 61 355 3.5 14.8 0.00 0.00 0.00 65 1013.4
20260506071541 62 313 7.0 14.8 0.00 0.00 0.00 63 1013.3
20260506061534 63 271 3.5 11.3 0.00 0.00 0.00 60 1014.1
20260506044524 64 287 3.5 9.6 0.00 0.00 0.00 59 1015.7
20260506043022 64 360 6.1 14.8 0.00 0.00 0.00 59 1015.8
20260506041521 64 339 4.3 12.2 0.00 0.00 0.00 59 1016.1
20260506040019 65 288 5.2 14.8 0.00 0.00 0.00 58 1016.4
20260506034518 65 355 5.2 11.3 0.00 0.00 0.00 58 1016.7
20260506033016 65 355 3.5 11.3 0.00 0.00 0.00 58 1016.7
20260506031513 64 344 4.3 13.0 0.00 0.00 0.00 59 1017.1
20260506030025 64 336 5.2 11.3 0.00 0.00 0.00 57 1017.4
20260506024522 65 317 4.3 9.6 0.00 0.00 0.00 56 1017.7
20260506023005 64 315 4.3 9.6 0.00 0.00 0.00 56 1018.0
20260506021502 63 293 2.6 7.8 0.00 0.00 0.00 58 1018.4
20260506020059 62 290 2.6 9.6 0.00 0.00 0.00 58 1018.7
20260506014556 61 288 2.6 7.8 0.00 0.00 0.00 59 1019.0
20260506013054 61 325 2.6 7.8 0.00 0.00 0.00 59 1019.3
20260506011553 61 310 3.5 8.7 0.00 0.00 0.00 59 1019.4
20260506010052 61 326 2.6 8.7 0.00 0.00 0.00 58 1019.5
20260506004550 61 327 2.6 10.4 0.00 0.00 0.00 58 1019.6
20260506003049 61 292 1.7 7.0 0.00 0.00 0.00 60 1019.8
20260506001549 60 360 4.3 8.7 0.00 0.00 0.00 61 1019.9
20260506000043 60 340 2.6 9.6 0.00 0.00 0.00 62 1020.0
20260505234548 60 307 0.9 7.0 0.00 0.00 0.00 63 1020.2
20260505233041 60 323 1.7 7.8 0.00 0.00 0.00 64 1020.3
20260505231550 59 322 1.7 6.1 0.00 0.00 0.00 64 1020.4
20260505230052 59 330 1.7 6.1 0.00 0.00 0.00 65 1020.4
20260505224537 58 332 0.9 6.1 0.00 0.00 0.00 65 1020.5
20260505223034 58 348 1.7 6.1 0.00 0.00 0.00 66 1020.5
20260505221535 58 278 1.7 3.5 0.00 0.00 0.00 67 1020.5
20260505220033 57 282 0.9 3.5 0.00 0.00 0.00 68 1020.6
20260505214533 57 309 1.7 5.2 0.00 0.00 0.00 68 1020.6
20260505213032 57 328 0.0 3.5 0.00 0.00 0.00 69 1020.4
20260505211531 57 331 0.9 4.3 0.00 0.00 0.00 69 1020.4
20260505210033 57 311 1.7 3.5 0.00 0.00 0.00 69 1020.5
20260505204530 57 306 0.9 4.3 0.00 0.00 0.00 69 1020.5
20260505203030 57 306 0.9 4.3 0.00 0.00 0.00 69 1020.5
20260505201528 57 324 0.9 3.5 0.00 0.00 0.00 69 1020.6
20260505200029 57 343 0.9 3.5 0.00 0.00 0.00 69 1020.6
20260505194528 57 307 0.9 3.5 0.00 0.00 0.00 70 1020.5
20260505193028 57 326 0.0 2.6 0.00 0.00 0.00 71 1020.7
20260505191525 56 303 0.0 2.6 0.00 0.00 0.00 72 1020.7
20260505190024 56 292 0.0 2.6 0.00 0.00 0.00 73 1020.8
20260505184524 56 325 0.0 2.6 0.00 0.00 0.00 73 1020.8
20260505183032 56 288 0.9 1.7 0.00 0.00 0.00 74 1020.8
20260505181522 56 306 0.9 1.7 0.00 0.00 0.00 75 1020.8
20260505180041 56 301 0.0 1.7 0.00 0.00 0.00 76 1020.8
20260505174522 56 327 0.0 1.7 0.00 0.00 0.00 76 1020.8
20260505173021 57 307 0.0 1.7 0.00 0.00 0.00 76 1020.9
20260505171520 57 286 0.0 1.7 0.00 0.00 0.00 76 1021.0
20260505170022 57 311 0.0 0.0 0.00 0.00 0.00 76 1021.1
20260505164518 57 311 0.0 1.7 0.00 0.00 0.00 76 1021.2
20260505163017 57 302 0.0 2.6 0.00 0.00 0.00 76 1021.3
20260505161616 57 314 0.9 2.6 0.00 0.00 0.00 76 1021.4
20260505153013 57 309 0.9 2.6 0.00 0.00 0.00 77 1021.9
20260505151511 57 325 0.0 3.5 0.00 0.00 0.00 78 1022.0
20260505124559 57 301 0.0 0.0 0.00 0.00 0.00 72 1022.4
20260505123101 58 301 0.0 0.0 0.00 0.00 0.00 72 1022.5
20260505121558 58 301 0.0 2.6 0.00 0.00 0.00 71 1022.5
20260505120059 59 292 0.9 2.6 0.00 0.00 0.00 71 1022.5
20260505114601 59 275 0.9 3.5 0.00 0.00 0.00 71 1022.6
20260505113057 58 305 0.0 3.5 0.00 0.00 0.00 71 1022.7
20260505111557 58 263 0.9 2.6 0.00 0.00 0.00 71 1022.6
20260505101608 58 325 0.0 0.0 0.00 0.00 0.00 73 1022.4
20260505100104 59 263 0.0 0.0 0.00 0.00 0.00 73 1022.5
20260505094553 59 263 0.0 0.0 0.00 0.00 0.00 73 1022.4
20260505093102 59 263 0.0 0.0 0.00 0.00 0.00 73 1022.5
20260505091554 59 263 0.0 0.0 0.00 0.00 0.00 73 1022.4
20260505090052 59 262 0.0 0.0 0.00 0.00 0.00 73 1022.2